Date,TemperatureHighF,TemperatureAvgF,TemperatureLowF,DewpointHighF,DewpointAvgF,DewpointLowF,HumidityHigh,HumidityAvg,HumidityLow,PressureMaxIn,PressureMinIn,WindSpeedMaxMPH,WindSpeedAvgMPH,GustSpeedMaxMPH,PrecipitationSumIn
2013-1-1,31,28,21,29,24,13,93,85,71,30.01,29.91,6,2,16,0.00
2013-1-2,25,20,16,14,12,10,80,71,57,30.16,29.99,7,1,14,0.00
2013-1-3,32,22,9,20,13,5,86,70,51,30.15,30.04,11,3,0,0.00
2013-1-4,31,28,25,20,18,16,74,67,54,30.17,30.06,11,6,0,0.00
2013-1-5,35,29,24,23,20,15,77,67,58,30.32,30.09,4,1,0,0.00
2013-1-6,37,34,33,31,26,23,90,73,66,30.14,29.93,6,2,15,0.00
2013-1-7,34,30,25,27,24,20,83,78,67,30.41,30.14,6,1,16,0.00
2013-1-8,44,33,24,28,24,20,85,70,48,30.29,30.19,4,0,10,0.00
2013-1-9,47,40,34,38,30,24,79,69,62,30.41,30.16,10,2,22,0.01
2013-1-10,39,36,32,28,27,25,79,68,58,30.45,30.26,4,1,4,0.00
2013-1-11,53,46,39,51,38,25,96,76,52,30.26,29.88,6,3,12,0.00
2013-1-12,60,56,51,56,53,50,98,91,80,30.03,29.93,5,1,11,0.00
2013-1-13,67,62,57,55,54,52,93,75,64,29.93,29.79,9,2,18,0.06
2013-1-14,57,36,29,55,29,21,93,76,61,30.33,29.83,13,2,27,0.01
2013-1-15,32,29,22,22,21,19,89,71,59,30.32,30.03,1,0,2,0.01
2013-1-16,33,31,29,32,28,22,95,90,68,30.03,29.82,4,1,12,0.00
2013-1-17,34,32,30,28,26,24,88,80,76,30.13,29.93,9,2,15,0.00
2013-1-18,31,25,15,24,14,9,83,62,46,30.43,30.06,13,3,21,0.00
2013-1-19,51,42,31,22,18,15,52,39,27,30.18,29.75,10,4,23,0.00
2013-1-20,46,33,21,30,17,9,62,51,39,30.09,29.70,23,8,33,0.00
2013-1-21,21,19,11,18,11,0,88,73,59,30.06,29.83,14,3,25,0.00
2013-1-22,11,8,5,1,-2,-7,75,63,49,30.18,29.96,14,6,25,0.00
2013-1-23,14,9,2,7,0,-5,81,67,54,30.21,29.99,8,2,19,0.00
2013-1-24,21,13,9,10,3,-6,85,66,31,30.48,29.97,5,1,18,0.01
2013-1-25,17,13,9,14,7,0,86,76,67,30.45,29.93,4,0,7,0.00
2013-1-26,26,21,16,22,15,11,90,80,64,30.36,30.01,9,1,14,0.03
2013-1-27,29,21,11,19,13,8,88,72,53,30.46,30.25,3,0,7,0.03
2013-1-28,48,39,28,47,36,19,98,92,66,30.25,29.94,6,2,15,0.01
2013-1-29,61,54,48,56,50,47,99,88,69,30.00,29.76,6,1,16,0.00
2013-1-30,65,58,50,56,51,45,95,80,63,29.76,29.18,10,5,19,0.00
2013-1-31,50,26,21,45,17,9,89,69,53,29.77,29.19,17,9,11,0.00
2013-2-1,22,15,10,14,5,0,74,63,53,30.25,29.75,13,6,27,0.00
2013-2-2,22,16,9,20,11,1,90,79,66,30.24,29.90,5,1,11,0.00
2013-2-3,23,21,17,20,16,10,91,83,65,29.93,29.75,9,2,20,0.05
2013-2-4,24,20,16,22,15,8,91,79,69,29.98,29.79,8,2,19,0.10
2013-2-5,29,26,24,26,23,20,93,89,77,29.87,29.75,4,0,9,0.00
2013-2-6,30,27,20,25,18,10,91,71,49,30.27,29.87,6,2,16,0.00
2013-2-7,41,28,20,26,18,10,73,65,53,30.24,30.01,4,1,9,0.00
2013-2-9,31,26,23,14,13,12,67,57,47,30.33,30.29,3,0,7,0.00
2013-2-10,47,33,19,22,16,11,74,52,29,30.30,29.89,5,2,12,0.00
2013-2-11,58,45,35,46,34,22,95,68,34,29.92,29.61,18,7,39,0.05
2013-2-12,38,33,28,25,22,20,76,64,56,30.01,29.86,15,5,24,0.00
2013-2-13,37,30,22,30,24,19,90,80,65,29.87,29.62,3,0,7,0.00
2013-2-14,41,34,25,33,29,22,90,81,68,29.87,29.77,4,1,10,0.00
2013-2-15,40,34,25,34,26,21,91,72,53,30.01,29.83,11,2,22,0.00
2013-2-16,27,23,19,20,16,8,85,75,47,30.00,29.87,3,0,12,0.01
2013-2-17,22,18,14,16,10,2,88,71,47,30.17,29.85,12,4,24,0.06
2013-2-18,42,26,10,27,12,2,71,56,43,30.22,29.82,6,1,13,0.06
2013-2-19,45,35,23,38,28,14,90,75,46,29.86,29.60,18,7,32,0.01
2013-2-20,22,19,16,18,9,6,84,67,53,30.12,29.86,17,8,26,0.01
2013-2-21,23,20,18,16,12,8,86,72,62,30.28,30.09,7,2,16,0.02
2013-2-22,33,28,18,31,23,11,94,81,63,30.19,29.93,7,3,15,0.02
2013-2-23,40,35,31,34,31,25,93,85,72,29.94,29.81,4,0,10,0.03
2013-2-24,30,29,27,25,22,18,88,76,62,30.07,29.81,9,2,19,0.00
2013-2-25,41,32,23,27,22,19,91,69,48,30.17,29.99,3,0,7,0.00
2013-2-26,39,34,30,34,26,19,94,74,53,30.01,29.54,9,3,15,0.75
2013-2-27,42,37,33,37,35,31,95,91,72,29.61,29.49,6,3,13,0.75
2013-2-28,33,32,31,31,30,27,94,90,83,29.76,29.54,5,2,13,0.13
2013-3-1,31,28,24,29,24,19,94,85,77,29.91,29.76,5,2,15,0.13
2013-3-2,27,25,22,22,20,17,88,81,66,29.91,29.85,6,2,15,0.04
2013-3-3,26,24,22,21,18,13,88,79,67,29.95,29.85,9,4,18,0.02
2013-3-4,35,27,21,19,16,13,81,65,50,30.05,29.93,10,3,18,0.02
2013-3-5,42,30,18,23,17,13,84,62,32,30.02,29.62,6,2,14,0.00
2013-3-6,42,35,31,34,27,23,95,75,55,30.06,29.62,4,1,13,0.26
2013-3-7,39,34,31,31,29,26,90,81,66,30.24,30.05,9,2,17,0.26
2013-3-8,38,32,28,28,26,22,86,78,63,30.35,30.24,8,2,16,0.00
2013-3-9,52,38,23,29,24,20,89,62,32,30.34,30.13,5,1,9,0.00
2013-3-10,68,55,44,34,26,20,40,34,25,30.13,29.94,5,2,12,0.00
2013-3-11,62,55,46,47,33,28,91,44,30,29.98,29.66,9,3,25,0.21
2013-3-12,46,38,35,44,33,26,94,81,68,29.93,29.72,11,4,20,0.01
2013-3-13,35,31,25,29,24,16,92,78,58,30.04,29.85,17,5,30,0.05
2013-3-14,34,27,24,20,18,15,80,67,46,30.13,30.04,15,8,24,0.00
2013-3-15,46,40,28,34,28,19,89,63,52,29.95,29.78,10,3,0,0.00
2013-3-16,36,33,32,33,31,27,94,93,89,29.92,29.68,3,1,2,0.00
2013-3-17,33,30,27,27,23,20,90,76,64,30.14,29.92,4,0,10,0.00
2013-3-18,37,32,28,35,27,20,94,84,66,30.12,29.62,7,3,15,0.34
2013-3-19,39,35,29,38,26,15,95,72,51,29.90,29.65,17,8,29,0.00
2013-3-20,34,29,25,23,17,14,75,59,44,29.90,29.77,16,5,25,0.00
2013-3-21,27,23,17,21,12,5,85,64,46,29.83,29.78,10,4,20,0.01
2013-3-22,31,27,24,22,19,17,88,73,60,29.96,29.83,10,5,23,0.00
2013-3-23,42,32,22,23,20,17,83,63,42,29.98,29.91,8,1,17,0.00
2013-3-24,42,33,25,26,20,18,79,61,40,29.96,29.49,7,2,13,0.00
2013-3-25,36,32,30,35,31,26,96,94,72,29.69,29.40,10,2,14,0.30
2013-3-26,39,34,31,32,30,29,96,86,70,30.01,29.69,9,2,17,0.00
2013-3-27,40,35,32,32,29,23,95,81,51,30.11,30.00,12,4,21,0.13
2013-3-28,41,37,33,32,29,28,92,74,61,30.21,30.06,11,4,19,0.13
2013-3-29,50,41,36,32,26,20,77,57,30,30.21,30.11,9,2,17,0.00
2013-3-30,54,42,27,26,21,17,79,46,26,30.20,29.98,5,0,12,0.00
2013-3-31,48,46,42,45,33,-100,92,66,33,29.98,29.68,6,2,11,0.04
2013-4-1,45,39,31,42,25,9,90,61,29,29.96,29.65,11,5,23,0.02
2013-4-2,38,31,24,22,15,9,88,53,33,30.11,29.95,12,4,24,5.69
2013-4-3,37,30,23,20,13,8,72,51,30,30.30,30.10,16,3,25,0.00
2013-4-4,43,43,43,14,14,14,30,30,30,29.93,29.93,0,0,0,0.00
2013-4-5,51,42,31,28,20,14,62,43,30,30.12,29.87,10,2,23,0.00
2013-4-6,55,40,24,22,16,9,77,44,16,30.24,29.98,5,1,11,0.00
2013-4-7,71,60,51,43,34,17,62,37,26,29.98,29.84,15,5,23,0.00
2013-4-8,73,60,44,48,42,37,79,56,34,30.01,29.86,11,2,14,0.00
2013-4-9,78,68,55,53,49,42,74,52,37,30.09,29.90,9,2,17,0.00
2013-4-10,77,68,58,62,56,51,96,68,51,29.93,29.79,10,3,14,0.00
2013-4-11,72,62,53,60,56,48,97,84,59,29.90,29.58,8,1,0,0.00
2013-4-12,61,54,43,59,48,32,96,79,56,29.84,29.47,13,6,0,0.00
2013-4-13,48,43,39,35,33,29,78,68,51,29.99,29.81,11,4,0,0.00
2013-4-14,59,44,32,36,30,26,79,58,37,30.10,29.98,4,1,0,0.00
2013-4-28,56,54,53,52,51,49,93,90,85,29.98,29.92,5,2,10,0.05
2013-4-29,62,56,52,57,52,48,92,86,77,30.01,29.91,3,1,10,0.04
2013-4-30,70,61,53,55,52,49,94,73,49,30.17,30.01,6,2,12,0.04
2013-5-1,74,60,53,50,44,30,84,61,29,30.29,30.16,3,1,12,0.00
2013-5-2,75,64,52,41,33,26,54,34,17,30.33,30.18,4,1,10,0.00
2013-5-3,73,62,51,43,38,33,57,42,25,30.23,30.14,8,2,14,0.00
2013-5-4,69,59,47,42,39,35,73,48,32,30.18,30.06,5,2,12,0.00
2013-5-5,72,60,48,41,32,19,72,39,14,30.13,29.99,7,2,16,0.00
2013-5-6,69,58,45,52,43,28,76,57,33,30.07,29.98,7,1,13,0.00
2013-5-7,70,62,56,56,52,50,87,71,50,30.02,29.94,7,1,10,0.00
2013-5-8,73,62,53,54,50,42,93,67,37,29.97,29.88,3,0,0,0.00
2013-5-9,77,63,54,56,52,46,94,73,36,29.96,29.88,5,1,0,0.00
2013-5-10,74,63,59,63,54,-100,95,77,46,29.97,29.80,7,1,0,0.00
2013-5-11,64,59,55,63,56,51,96,88,77,29.83,29.76,5,2,12,0.30
2013-5-12,56,48,41,53,34,-100,89,61,39,30.00,29.79,14,5,30,0.03
2013-5-13,50,42,34,32,26,20,87,56,31,30.15,30.00,7,2,0,0.00
2013-5-14,57,47,32,38,31,24,78,56,39,30.13,29.88,4,0,10,0.00
2013-5-15,83,67,51,60,50,36,73,56,36,29.88,29.70,11,3,25,0.00
2013-5-16,81,64,62,61,25,-100,93,46,25,29.96,29.77,4,1,3,0.02
2013-5-17,80,64,49,60,43,-100,95,61,32,30.12,29.96,4,0,11,0.00
2013-5-18,80,68,56,60,50,40,76,53,35,30.15,30.03,4,0,11,0.00
2013-5-19,76,67,58,62,59,55,92,76,61,30.11,29.98,3,0,11,0.00
2013-5-20,84,73,61,66,62,58,93,71,49,30.03,29.90,3,1,11,0.00
2013-5-21,86,77,67,68,64,60,91,68,43,29.97,29.84,7,1,18,0.00
2013-5-22,85,73,66,66,62,58,88,68,40,29.90,29.78,8,2,17,0.15
2013-5-23,74,65,48,62,59,46,94,84,58,29.91,29.76,7,2,19,0.17
2013-5-24,48,43,39,46,37,31,94,78,59,30.26,29.89,8,3,20,0.01
2013-5-25,60,46,34,38,33,30,91,63,33,30.28,30.20,12,2,23,0.00
2013-5-26,65,51,36,39,33,29,86,54,28,30.26,30.19,6,1,16,0.00
2013-5-27,62,53,39,45,39,33,87,61,38,30.26,30.09,1,0,6,0.00
2013-5-28,79,65,52,67,58,45,95,80,57,30.10,29.96,6,1,14,0.04
2013-5-29,84,76,69,63,60,56,72,58,44,30.09,29.99,6,2,18,0.00
2013-5-30,86,77,67,65,61,57,76,59,38,30.20,30.09,6,1,12,0.00
2013-5-31,86,78,70,64,61,57,77,58,38,30.14,29.99,8,1,5,0.00
2013-6-1,85,76,67,66,64,60,86,66,49,30.03,29.82,8,2,0,0.00
2013-6-2,78,74,68,66,59,-100,84,64,47,29.87,29.79,7,3,0,0.00
2013-6-3,68,61,50,57,50,38,88,68,40,30.05,29.86,4,1,0,0.00
2013-6-4,72,58,42,47,42,38,90,60,34,30.16,30.05,4,1,0,0.00
2013-6-5,81,66,51,59,50,42,74,58,41,30.14,29.94,1,0,5,0.00
2013-6-6,69,65,63,65,62,55,96,89,62,29.95,29.78,4,0,9,0.34
2013-6-7,64,60,57,62,58,52,98,92,82,29.84,29.74,5,1,10,0.34
2013-6-8,70,62,55,55,53,51,92,75,56,30.09,29.84,4,0,10,0.00
2013-6-9,79,68,55,63,57,52,93,71,51,30.16,30.04,2,0,5,0.00
2013-6-10,74,69,64,69,65,62,94,87,72,30.04,29.77,4,1,11,0.15
2013-6-11,76,68,62,65,62,59,95,83,62,29.89,29.78,8,2,16,0.04
2013-6-12,80,72,64,68,64,60,92,76,55,29.91,29.74,5,1,15,0.00
2013-6-13,74,66,59,70,61,54,92,85,71,29.80,29.57,6,2,13,0.10
2013-6-14,74,62,54,58,55,52,95,80,51,30.05,29.80,8,1,15,0.00
2013-6-15,77,65,51,55,50,41,95,63,29,30.12,30.01,5,1,11,0.00
2013-6-16,76,68,61,67,62,53,94,81,60,30.03,29.89,8,2,17,0.01
2013-6-17,82,73,66,65,60,51,93,67,35,29.98,29.90,4,1,12,0.01
2013-6-18,80,70,62,65,59,54,85,70,54,29.97,29.84,3,0,10,0.00
2013-6-19,75,64,54,55,49,43,86,61,33,30.16,29.96,1,0,2,0.00
2013-6-20,81,61,50,56,50,45,92,71,30,30.24,30.16,2,0,0,0.00
2013-6-22,87,83,77,67,65,63,70,54,46,30.21,30.09,6,1,13,0.00
2013-6-23,88,80,71,68,65,60,85,63,41,30.17,30.06,6,1,14,0.00
2013-6-24,88,78,69,66,64,61,86,63,43,30.15,30.01,7,1,14,0.00
2013-6-25,88,74,66,68,66,61,94,77,50,30.06,29.90,6,1,15,0.52
2013-6-26,81,72,65,69,66,63,97,83,62,30.00,29.82,3,1,16,0.44
2013-6-27,73,70,68,68,68,66,95,91,83,29.82,29.72,0,0,4,0.91
2013-7-1,71,69,67,64,63,62,85,82,76,29.96,29.93,0,0,0,0.00
2013-7-2,82,74,65,69,66,63,96,80,61,30.06,29.93,4,0,9,0.09
2013-7-3,86,76,70,69,66,64,85,73,52,30.19,30.06,8,1,13,0.00
2013-7-4,84,76,70,70,68,66,92,76,55,30.24,30.15,3,0,9,0.01
2013-7-5,83,76,70,69,67,66,90,75,59,30.20,30.11,5,1,15,0.00
2013-7-6,87,77,70,71,68,67,90,76,51,30.20,30.05,3,0,12,0.00
2013-7-7,80,74,70,71,67,63,91,79,59,30.12,30.03,5,1,10,0.00
2013-7-8,84,72,64,69,63,-100,94,78,54,30.13,30.03,5,1,17,0.12
2013-7-9,84,72,67,74,69,65,95,89,71,30.13,29.98,6,1,13,0.18
2013-7-10,84,70,66,75,65,-100,96,90,73,29.99,29.82,11,1,21,0.34
2013-7-11,77,69,62,65,60,55,97,77,51,30.01,29.90,2,0,10,0.00
2013-7-12,76,67,58,64,59,55,92,79,54,30.12,30.01,0,0,2,0.00
2013-7-13,80,71,61,68,63,58,92,77,62,30.23,30.11,0,0,0,0.00
2013-7-14,89,78,69,70,67,64,90,70,48,30.32,30.22,4,0,0,0.00
2013-7-15,90,79,70,72,69,67,91,72,47,30.36,30.26,3,0,0,0.00
2013-7-16,90,78,72,74,72,70,95,82,53,30.33,30.27,1,0,2,0.00
2013-7-17,87,78,72,77,74,71,98,86,66,30.32,30.18,5,0,11,0.04
2013-7-18,90,82,74,75,73,71,96,77,54,30.20,30.03,8,1,13,0.00
2013-7-19,90,78,71,74,71,68,91,80,51,30.04,29.87,9,1,30,0.31
2013-7-20,83,75,70,71,67,-100,92,79,63,29.94,29.86,6,1,15,0.00
2013-7-21,84,74,69,70,68,65,94,82,59,29.99,29.92,3,0,7,0.00
2013-7-22,77,70,65,72,67,64,96,91,78,29.98,29.77,1,0,0,0.00
2013-7-23,82,70,65,68,66,62,97,87,56,29.78,29.70,6,1,12,0.10
2013-7-24,71,65,58,65,56,52,95,72,54,30.00,29.75,5,0,10,0.01
2013-7-25,76,64,51,55,51,48,93,67,41,30.07,29.98,3,0,9,0.00
2013-7-26,80,67,54,57,54,50,96,68,37,30.11,30.01,4,0,10,0.00
2013-7-27,74,67,63,67,62,56,95,84,68,30.01,29.84,7,0,13,1.12
2013-7-28,73,66,60,64,58,52,96,77,49,30.03,29.85,7,1,17,0.03
2013-7-29,72,63,55,56,53,50,87,69,49,30.20,30.03,8,1,18,0.00
2013-7-30,78,66,55,58,55,52,94,70,43,30.25,30.17,3,0,9,0.00
2013-7-31,78,67,57,65,60,55,94,79,53,30.17,29.97,2,0,7,0.00
2013-8-1,79,71,66,66,62,58,95,75,49,29.97,29.87,7,1,17,0.03
2013-8-2,75,67,60,62,57,50,93,72,43,29.99,29.91,9,1,19,0.00
2013-8-3,78,70,63,65,60,51,96,73,45,30.00,29.93,6,1,14,0.18
2013-8-4,73,64,56,58,55,51,95,75,49,30.11,29.99,6,1,14,0.14
2013-8-5,73,63,53,57,53,49,95,72,42,30.11,30.01,3,0,7,0.00
2013-8-6,80,68,56,58,55,52,93,66,41,30.05,29.98,4,0,7,0.00
2013-8-7,82,70,63,72,64,57,94,83,63,29.99,29.91,3,0,11,0.54
2013-8-8,85,73,67,73,68,65,96,86,62,29.98,29.89,3,0,10,0.57
2013-8-9,78,71,66,72,68,61,98,89,66,30.01,29.90,5,1,13,0.66
2013-8-10,79,70,62,65,61,58,94,74,53,30.11,30.01,3,0,9,0.00
2013-8-11,80,70,62,66,60,56,84,71,53,30.14,30.03,1,0,6,0.01
2013-8-12,81,69,61,66,62,59,95,80,53,30.06,29.88,4,0,10,0.00
2013-8-13,75,68,56,68,58,-100,95,74,60,29.97,29.79,6,2,17,0.04
2013-8-14,67,55,50,55,44,-100,92,75,53,30.14,29.97,4,1,12,0.01
2013-8-15,73,54,50,53,26,-100,92,58,40,30.19,30.10,1,0,0,0.00
2013-8-16,77,63,54,58,48,-100,92,67,42,30.18,30.11,1,0,0,0.00
2013-8-21,85,73,61,65,61,58,94,69,44,30.21,30.07,1,0,5,0.00
2013-8-22,81,74,66,70,66,62,93,78,62,30.10,29.98,12,1,19,0.04
2013-8-23,81,71,64,67,60,52,96,72,43,30.16,29.99,1,0,5,0.01
2013-8-24,80,68,56,58,55,53,91,66,41,30.31,30.16,1,0,6,0.00
2013-8-25,82,70,60,61,55,-100,88,63,39,30.36,30.24,4,0,11,0.00
2013-8-26,85,73,64,66,60,57,80,66,45,30.27,30.04,6,1,15,0.00
2013-8-27,79,74,70,71,68,66,93,84,74,30.04,29.96,4,1,10,0.17
2013-8-28,79,74,70,74,71,68,96,91,82,29.92,29.84,5,1,13,0.04
2013-8-29,84,74,66,70,67,64,98,80,53,30.05,29.92,1,0,4,0.01
2013-9-1,77,72,71,71,67,-100,95,88,78,29.85,29.80,2,0,0,0.00
2013-9-2,84,74,66,71,67,62,94,81,55,29.84,29.76,4,1,0,0.00
2013-9-3,67,63,59,62,57,53,96,82,64,30.05,29.83,4,1,0,0.00
2013-9-4,77,65,54,58,55,53,96,74,47,30.12,30.02,3,1,0,0.00
2013-9-5,72,65,54,59,53,44,90,68,36,30.22,30.06,5,1,0,0.00
2013-9-6,73,59,46,49,45,39,94,64,30,30.27,30.12,1,0,0,0.00
2013-9-7,79,64,47,61,49,45,93,63,37,30.11,29.94,2,0,0,0.00
2013-9-8,77,67,60,66,59,-100,89,77,60,30.07,29.91,3,0,0,0.00
2013-9-9,77,66,55,71,61,51,95,86,72,30.11,30.03,0,0,0,0.00
2013-9-10,90,78,70,74,71,67,94,79,55,30.15,30.05,2,1,0,0.00
2013-9-11,88,77,72,73,71,67,89,81,60,30.15,30.02,2,0,0,0.00
2013-9-12,75,69,62,70,66,60,95,90,83,30.02,29.80,3,1,0,0.00
2013-9-13,63,57,51,60,52,45,97,83,59,30.02,29.82,4,1,0,0.00
2013-9-14,64,55,49,48,44,41,88,70,44,30.16,30.02,4,0,10,0.00
2013-9-15,68,54,46,55,45,-100,94,77,47,30.18,30.05,2,0,9,0.06
2013-9-16,69,59,51,57,53,48,97,81,55,30.30,30.07,4,1,10,0.24
2013-9-17,66,54,43,48,44,38,95,72,38,30.40,30.26,2,0,6,0.00
2013-9-18,53,48,45,44,42,41,88,78,69,30.26,30.22,0,0,1,0.00
2013-9-19,76,66,61,62,59,52,94,79,55,30.15,30.03,3,0,6,0.00
2013-9-20,78,69,61,69,64,59,94,85,70,30.04,29.84,2,0,9,0.00
2013-9-21,71,63,55,67,61,54,97,92,85,29.83,29.69,4,1,12,0.42
2013-10-1,68,65,62,58,58,57,84,77,70,30.04,29.99,0,0,0,0.00
2013-10-2,79,69,60,64,60,57,92,75,52,30.10,30.04,4,1,0,0.00
2013-10-3,79,68,59,67,63,58,96,85,63,30.10,30.02,5,0,0,0.00
2013-10-4,81,70,64,67,65,62,96,84,60,30.10,30.03,2,1,0,0.00
2013-10-5,78,70,66,70,66,64,94,88,72,30.09,29.98,1,0,0,0.00
2013-10-6,83,74,67,67,64,57,95,73,51,29.98,29.73,5,1,0,0.00
2013-10-7,73,58,50,60,50,42,96,75,60,29.96,29.69,8,4,0,0.00
2013-10-9,67,58,45,45,42,38,85,57,35,30.33,30.24,1,0,1,2.72
2013-10-10,69,56,46,47,42,38,82,60,35,30.24,30.10,1,0,4,2.72
2013-10-18,60,51,44,47,42,39,95,74,46,29.98,29.86,8,2,21,0.00
2013-10-19,53,48,41,47,41,38,91,79,69,29.94,29.70,9,1,22,0.05
2013-10-20,56,46,38,39,35,-100,94,70,46,30.01,29.89,9,1,20,0.05
2013-10-21,64,54,43,39,36,30,75,53,29,30.02,29.83,6,1,16,0.00
2013-10-22,57,46,38,47,34,26,94,67,40,29.95,29.82,6,2,16,0.03
2013-10-23,42,40,35,37,34,31,91,81,64,29.87,29.73,6,1,15,0.03
2013-10-24,43,37,32,34,30,26,91,77,52,30.09,29.86,9,2,23,0.03
2013-10-25,47,40,32,34,29,25,91,67,45,30.27,30.09,7,2,18,0.00
2013-10-26,47,40,33,32,26,23,76,59,39,30.19,29.84,11,3,22,0.00
2013-10-27,49,42,34,36,30,-100,93,66,46,30.06,29.92,9,1,22,0.00
2013-10-28,57,44,30,37,29,-100,92,63,34,30.27,30.04,3,0,9,0.00
2013-10-29,58,47,36,41,37,34,94,69,44,30.35,30.24,2,0,6,0.00
2013-10-30,64,53,44,52,42,36,86,67,41,30.24,30.09,2,0,9,0.00
2013-11-7,57,44,39,56,38,24,95,80,54,30.08,29.85,7,3,21,0.01
2013-11-8,41,37,31,31,27,23,85,67,49,30.24,30.03,13,3,20,0.00
2013-11-9,55,43,30,28,22,-100,77,50,28,30.23,29.90,8,2,19,0.00
2013-11-10,52,44,37,36,31,26,73,61,42,30.23,29.91,13,6,26,0.00
2013-11-11,47,39,31,36,29,25,91,68,43,30.23,29.98,8,2,15,0.02
2013-11-12,34,30,27,31,23,17,93,78,50,30.39,30.05,7,2,18,0.11
2013-11-13,36,29,24,23,20,17,89,71,49,30.46,30.30,9,3,16,0.11
2013-11-14,48,38,27,21,18,15,69,47,29,30.29,30.12,3,1,6,0.00
2013-11-15,54,45,37,32,22,17,51,41,25,30.15,30.06,6,1,0,0.00
2013-11-16,58,51,43,47,39,-100,82,67,52,30.18,29.98,3,1,0,0.00
2013-11-17,59,56,52,57,52,46,94,87,68,29.98,29.48,9,4,0,0.00
2013-11-18,57,46,37,41,32,25,76,59,42,30.01,29.57,17,9,29,0.00